Regional Weather Roundup
Issued by NWS Bismarck, ND

Home | Current Version | Previous Version | Text Only | Print | Product List | Glossary On
Versions: 1 2 3 4 5 6 7 8 9 10 11 12 13 14 15 16 17 18 19 20 21 22 23 24 25 26 27 28 29 30 31 32 33 34 35 36 37 38 39 40 41 42 43 44 45 46 47 48 49 50
000
ASUS43 KBIS 221502
RWRBIS

NWR BROADCAST TEXT
NATIONAL WEATHER SERVICE BISMARCK ND
900 AM CST WED NOV 22 2017

NOTE: "FAIR" INDICATES FEW OR NO CLOUDS BELOW 12,000 FEET WITH NO
SIGNIFICANT WEATHER AND/OR OBSTRUCTIONS TO VISIBILITY.


CITY           SKY/WX    TMP DP  RH WIND       PRES   REMARKS
WILLISTON      CLOUDY    26  18  71 SW6       29.83R WCI  19
MINOT          CLOUDY    26  16  65 S12       29.84F WCI  16
MINOT AFB      CLOUDY    24  14  66 SE7       29.83F WCI  16
BISMARCK       CLOUDY    30  16  56 E5        29.95F
DICKINSON      CLOUDY    41  27  57 W16       29.84F
GARRISON         N/A     25  18  74 S12       29.86F WCI  14
HETTINGER ARPT CLOUDY    33  21  61 SW5       29.94S
JAMESTOWN      CLOUDY    18  13  80 S14       30.01F WCI   4
CARRINGTON     FAIR      19  14  79 S15       29.99F WCI   5
HAZEN          CLOUDY    30  19  64 CALM      29.89F
LINTON           N/A     21  10  63 S8        30.00F WCI  12
MANDAN         CLOUDY    23  12  63 S13G18    29.92F WCI  11
OAKES            N/A     18  10  73 S14       30.10F WCI   4
RUGBY          PTSUNNY   19  14  79 S13G18    29.90F WCI   7
STANLEY        CLOUDY    27  23  86 S6        29.82S WCI  20
TIOGA          FAIR      25  19  80 SW5       29.81S WCI  19
WATFORD CITY   FAIR      30  21  69 SW6       29.80F
$$

CITY           SKY/WX    TMP DP  RH WIND       PRES   REMARKS
GRAND FORKS    CLOUDY    17  13  84 S16       30.09F WCI   2
GRAND FORKS AF CLOUDY    17  10  74 S14       30.06F WCI   3
DEVILS LAKE    FLURRIES  19  12  74 S14       29.97F WCI   6
FARGO          CLOUDY    18  10  71 S15       30.14F WCI   4
CANDO          PTSUNNY   18  12  79 S14       29.96F WCI   4
CAVALIER       SNOW      14  12  92 S12       30.04F VSB 1/4 WCI   0
GRAFTON        CLOUDY    16  12  86 S14       30.09F FOG     WCI   1
GWINNER          N/A     19  12  73 S14       30.12F WCI   6
LANGDON        CLOUDY    18  14  86 S17       29.96F FOG     WCI   2
ROLLA          PTSUNNY   16  12  86 S14       29.88F FOG     WCI   1
WALHALLA       LGT SNOW  16  16 100 S7        30.02F WCI   6
$$

CITY           SKY/WX    TMP DP  RH WIND       PRES   REMARKS
ABERDEEN       CLOUDY    18  12  77 S13       30.12F WCI   5
MOBRIDGE       CLOUDY    27  15  61 S16       29.97F WCI  15
BUFFALO          N/A     34  24  67 W8        29.90R
RAPID CITY     CLOUDY    38  27  64 CALM      30.02R
GLASGOW        CLOUDY    30  25  81 CALM      29.82R
SIDNEY         CLOUDY    33  27  78 S12       29.84S
WOLF POINT     CLOUDY    21  13  71 CALM      29.84R
GLENDIVE       CLOUDY    29  25  85 S10       29.88S WCI  20
MILES CITY     CLOUDY    41  34  76 SW8       29.94R
BAKER          CLEAR     44  33  65 W17       29.93R
$$

CITY           SKY/WX    TMP DP  RH WIND       PRES   REMARKS
BILLINGS       CLOUDY    50  35  56 SW21      30.07R
GREAT FALLS    CLOUDY    55  39  54 SW25G35   29.97F
$$





USA.gov is the U.S. government's official web portal to all federal, state and local government web resources and services.